Roanoke, VA

8:36 AM EDT on May 28, 2017 (GMT -0400)
Roanoke Regional-Woodrum

Weather History for KROA - December, 2010

Change the Weather History Date:

Saturday, December 18, 2010

  Actual Average Record
Temperature  
Mean Temperature 31 °F 38 °F  
Max Temperature 35 °F 47 °F 78 °F (1924)
Min Temperature 27 °F 30 °F 11 °F (1932)
Degree Days  
Heating Degree Days 34 27  
Month to date heating degree days 624 446  
Since 1 July heating degree days 1326 1250  
Cooling Degree Days 0 0  
Month to date cooling degree days 0 0  
Year to date cooling degree days 1677 1208  
Moisture  
Dew Point 23 °F    
Average Humidity 70    
Maximum Humidity 75    
Minimum Humidity 64    
Precipitation  
Precipitation T in 0.08 in 1.01 in (2009)
Month to date precipitation 1.67 1.80  
Year to date precipitation 43.10 40.11  
Snow  
Snow T in - - ()
Month to date snowfall 4.1  
Since 1 July snowfall 4.1  
Snow Depth 3.00 in    
Sea Level Pressure  
Sea Level Pressure 30.10 in    
Wind  
Wind Speed 2 mph (NNE)    
Max Wind Speed 10 mph    
Max Gust Speed 12 mph    
Visibility 10 miles    
Events Snow    
T = Trace of Precipitation, MM = Missing Value Source: NWS Daily Summary

Daily Weather History Graph

Daily Weather History Graph

Search for Another Location

Airport or City:

Trip Planner

Search our weather history database for the weather conditions in past years. The results will help you decide how hot, cold, wet, or windy it might be!

Date:

Astronomy

Dec. 18, 2010 Rise Set
Actual Time 7:28 AM EST 5:04 PM EST
Civil Twilight 6:59 AM EST 5:33 PM EST
Nautical Twilight 6:26 AM EST 6:06 PM EST
Astronomical Twilight 5:54 AM EST 6:38 PM EST
Moon 2:48 PM EST (12/18) 4:48 AM EST (12/18)
Length of Visible Light 10h 34m
Length of Day
9h 35m
Waxing Gibbous, 92% of the Moon is Illuminated
Dec 18
Waxing Gibbous
Dec 21
Full
Dec 27
Last Quarter
Jan 4
New
Jan 12
First Quarter

Hourly Weather History & Observations

Time (EST) Temp. Windchill Dew Point Humidity Pressure Visibility Wind Dir Wind Speed Gust Speed Precip Events Conditions
12:54 AM 28.9 °F 22.8 °F 21.0 °F 72% 30.15 in 10.0 mi NNW 5.8 mph - N/A   Clear
1:54 AM 28.9 °F 22.8 °F 21.9 °F 75% 30.16 in 10.0 mi NW 5.8 mph - N/A   Clear
2:54 AM 28.4 °F 21.2 °F 21.2 °F 74% 30.13 in 10.0 mi NW 6.9 mph - N/A   Clear
3:54 AM 30.0 °F 26.5 °F 21.9 °F 72% 30.16 in 10.0 mi East 3.5 mph - N/A   Partly Cloudy
4:41 AM 28.4 °F - 21.2 °F 74% 30.13 in 10.0 mi Calm Calm - N/A   Overcast
4:54 AM 28.9 °F - 21.9 °F 75% 30.15 in 10.0 mi Calm Calm - N/A   Overcast
5:25 AM 28.4 °F - 21.2 °F 74% 30.12 in 10.0 mi Calm Calm - N/A   Mostly Cloudy
5:54 AM 28.9 °F 25.2 °F 21.9 °F 75% 30.15 in 10.0 mi NNE 3.5 mph - N/A   Overcast
6:54 AM 30.0 °F 26.5 °F 21.9 °F 72% 30.14 in 10.0 mi NNE 3.5 mph - N/A   Overcast
7:54 AM 30.0 °F 23.2 °F 21.9 °F 72% 30.15 in 10.0 mi NNE 6.9 mph - N/A   Overcast
8:54 AM 30.9 °F 23.5 °F 21.9 °F 69% 30.14 in 10.0 mi NNE 8.1 mph - N/A   Overcast
9:54 AM 30.9 °F - 21.9 °F 69% 30.17 in 10.0 mi Calm Calm - N/A   Overcast
10:54 AM 32.0 °F - 23.0 °F 69% 30.17 in 10.0 mi Calm Calm - N/A   Overcast
11:54 AM 33.1 °F 28.7 °F 23.0 °F 66% 30.12 in 10.0 mi East 4.6 mph - N/A   Overcast
12:54 PM 34.0 °F - 23.0 °F 64% 30.09 in 8.0 mi Calm Calm - 0.00 in Snow Light Snow
1:54 PM 34.0 °F - 23.0 °F 64% 30.06 in 10.0 mi Calm Calm - 0.00 in   Overcast
2:54 PM 34.0 °F - 23.0 °F 64% 30.05 in 10.0 mi Calm Calm - N/A   Overcast
3:54 PM 34.0 °F - 23.0 °F 64% 30.05 in 10.0 mi Calm Calm - N/A   Overcast
4:54 PM 34.0 °F - 24.1 °F 67% 30.05 in 10.0 mi Calm Calm - N/A   Overcast
5:54 PM 34.0 °F - 23.0 °F 64% 30.04 in 10.0 mi Calm Calm - N/A   Overcast
6:54 PM 33.1 °F - 25.0 °F 72% 30.06 in 10.0 mi Calm Calm - N/A   Overcast
7:54 PM 33.1 °F - 25.0 °F 72% 30.05 in 10.0 mi Calm Calm - N/A   Overcast
8:54 PM 32.0 °F - 24.1 °F 73% 30.06 in 10.0 mi Calm Calm - N/A   Overcast
9:54 PM 32.0 °F - 23.0 °F 69% 30.04 in 10.0 mi Calm Calm - N/A   Overcast
10:54 PM 32.0 °F - 23.0 °F 69% 30.04 in 10.0 mi Calm Calm - N/A   Overcast
11:54 PM 32.0 °F - 23.0 °F 69% 30.03 in 10.0 mi Calm Calm - N/A   Mostly Cloudy